Tekamah, NE

6:41 AM CDT on April 25, 2018 (GMT -0500)
Tekamah

Weather History for KTQE - November, 2014

Change the Weather History Date:

Sunday, November 23, 2014

  Actual Average Record
Temperature  
Mean Temperature 44 °F -  
Max Temperature 54 °F 41 °F 62 °F (1968)
Min Temperature 32 °F 24 °F 1 °F (1950)
Degree Days  
Heating Degree Days 20    
Moisture  
Dew Point 39 °F    
Average Humidity 76    
Maximum Humidity 93    
Minimum Humidity 58    
Precipitation  
Precipitation 0.01 in - - ()
Sea Level Pressure  
Sea Level Pressure 29.50 in    
Wind  
Wind Speed 15 mph (NW)    
Max Wind Speed 31 mph    
Max Gust Speed 41 mph    
Visibility 10 miles    
Events Rain    
Averages and records for this station are not official NWS values.
T = Trace of Precipitation, MM = Missing Value Source: NWS Daily Summary

Daily Weather History Graph

Daily Weather History Graph

Search for Another Location

Airport or City:

Astronomy

Nov. 23, 2014 Rise Set
Actual Time 7:23 AM CST 4:58 PM CST
Civil Twilight 6:53 AM CST 5:28 PM CST
Nautical Twilight 6:18 AM CST 6:02 PM CST
Astronomical Twilight 5:45 AM CST 6:36 PM CST
Moon 8:20 AM CST (11/23) 6:22 PM CST (11/23)
Length of Visible Light 10h 35m
Length of Day
9h 34m
New Moon, 2% of the Moon is Illuminated
Nov 23
New Moon
Nov 29
First Quarter
Dec 6
Full
Dec 14
Last Quarter
Dec 21
New

Hourly Weather History & Observations

Time (CST) Temp. Windchill Dew Point Humidity Pressure Visibility Wind Dir Wind Speed Gust Speed Precip Events Conditions
12:54 AM 54.0 °F - 51.1 °F 90% 29.50 in 10.0 mi South 11.5 mph - N/A   Overcast
1:44 AM 54.0 °F - 51.1 °F 90% 29.50 in 10.0 mi SSE 9.2 mph - N/A   Overcast
1:54 AM 54.0 °F - 51.1 °F 90% 29.49 in 10.0 mi South 10.4 mph - N/A   Overcast
2:20 AM 54.0 °F - 51.1 °F 90% 29.50 in 10.0 mi South 11.5 mph - N/A   Overcast
2:54 AM 54.0 °F - 50.0 °F 86% 29.48 in 10.0 mi SSE 9.2 mph - N/A   Overcast
3:54 AM 53.1 °F - 50.0 °F 89% 29.45 in 10.0 mi South 13.8 mph - N/A   Partly Cloudy
4:54 AM 50.0 °F - 48.0 °F 93% 29.44 in 10.0 mi SSE 11.5 mph - N/A   Clear
5:54 AM 48.0 °F - 46.0 °F 93% 29.45 in 8.0 mi SSE 6.9 mph - N/A   Partly Cloudy
6:54 AM 48.0 °F - 46.0 °F 93% 29.46 in 8.0 mi ESE 5.8 mph - N/A   Overcast
7:54 AM 50.0 °F - 46.9 °F 89% 29.47 in 7.0 mi South 5.8 mph - N/A   Overcast
8:41 AM 51.1 °F - 46.9 °F 86% 29.49 in 9.0 mi West 10.4 mph - N/A   Overcast
8:54 AM 52.0 °F - 48.0 °F 86% 29.48 in 10.0 mi WNW 12.7 mph - 0.00 in   Overcast
9:39 AM 48.9 °F - 42.1 °F 77% 29.50 in 10.0 mi NW 17.3 mph - 0.00 in Rain Light Rain
9:54 AM 48.0 °F - 39.9 °F 74% 29.49 in 10.0 mi NNW 24.2 mph 32.2 mph 0.00 in   Mostly Cloudy
10:54 AM 50.0 °F - 39.0 °F 66% 29.50 in 10.0 mi NNW 24.2 mph 31.1 mph N/A   Overcast
11:54 AM 48.9 °F - 39.0 °F 69% 29.49 in 10.0 mi NW 27.6 mph 36.8 mph N/A   Mostly Cloudy
12:43 PM 46.9 °F - 37.0 °F 68% 29.49 in 10.0 mi NNW 27.6 mph 36.8 mph N/A   Overcast
12:54 PM 46.9 °F - 37.0 °F 68% 29.48 in 10.0 mi NNW 31.1 mph 40.3 mph N/A   Overcast
1:52 PM 44.6 °F 36.1 °F 35.6 °F 71% 29.51 in 10.0 mi NNW 21.9 mph 31.1 mph N/A   Overcast
1:54 PM 45.0 °F 36.9 °F 36.0 °F 71% 29.50 in 10.0 mi NNW 20.7 mph - N/A   Overcast
2:30 PM 43.0 °F 34.0 °F 36.0 °F 76% 29.49 in 10.0 mi North 21.9 mph 33.4 mph 0.00 in Rain Light Rain
2:54 PM 44.1 °F 37.4 °F 36.0 °F 73% 29.50 in 10.0 mi NNW 13.8 mph - 0.01 in   Overcast
3:54 PM 45.0 °F 37.1 °F 35.1 °F 68% 29.52 in 10.0 mi NNW 19.6 mph - N/A   Overcast
4:54 PM 44.1 °F 36.2 °F 33.1 °F 65% 29.53 in 10.0 mi NNW 18.4 mph - N/A   Overcast
5:54 PM 44.1 °F 35.2 °F 30.0 °F 58% 29.53 in 10.0 mi NNW 23.0 mph 29.9 mph N/A   Partly Cloudy
6:54 PM 42.1 °F 35.7 °F 28.9 °F 60% 29.54 in 10.0 mi NW 11.5 mph - N/A   Partly Cloudy
7:54 PM 41.0 °F 33.5 °F 30.0 °F 65% 29.53 in 10.0 mi NW 13.8 mph - N/A   Overcast
8:54 PM 39.9 °F 29.0 °F 26.1 °F 58% 29.55 in 10.0 mi NW 26.5 mph 41.4 mph N/A   Overcast
9:54 PM 37.0 °F 25.6 °F 24.1 °F 59% 29.55 in 10.0 mi NW 24.2 mph - N/A   Overcast
10:54 PM 35.1 °F 23.8 °F 23.0 °F 61% 29.55 in 10.0 mi NW 20.7 mph 35.7 mph N/A   Overcast
11:54 PM 32.0 °F 21.2 °F 21.0 °F 64% 29.55 in 10.0 mi NNW 16.1 mph 26.5 mph N/A   Scattered Clouds